Location: Gälforsberget
(66.6500°N, 22.4167°E)
Time: 18:53:30
(UTC+00:00)

Cosmos 1656 - Pass Details

Date: 11 April 2026
Orbit: 797 x 847 km, 71.1° (Epoch: 19 May)

Event Time Altitude Azimuth Distance (km) Brightness Sun altitude
Rises 19:30:49 0° 287° (WNW) 3,315 8.0 -8.1°
Reaches altitude 10° 19:33:17 10° 292° (WNW) 2,383 7.3 -8.2°
Maximum altitude 19:38:38 57° 11° (N) 947 4.2 -8.6°
Drops below altitude 10° 19:44:00 10° 90° (E) 2,386 5.7 -9.0°
Enters shadow 19:46:11 - 94° (E) 3,209 6.3 -9.1°
